Location: Morrison Observatory
(41.7012°N, 86.2315°W)
Time: 15:11:34
(UTC-04:00)

Daily predictions for brighter satellites

Satellite Brightness Start Highest point End
(mag) Time Altitude Azimuth Time Altitude Azimuth Time Altitude Azimuth
Cosmos 292 Rocket 3.9 21:28:43 10° S 21:33:24 53° ESE 21:38:06 10° NNE
Envisat 3.1 21:28:44 10° SSE 21:33:45 65° ENE 21:38:47 10° N
Iridium 4 Rocket 3.5 21:33:01 10° N 21:37:57 85° E 21:43:20 10° S
Cosmos 1666 4.4 21:36:35 10° NNE 21:39:12 18° ENE 21:41:50 10° ESE
Lacrosse 5 rocket 4.4 21:36:30 10° WNW 21:39:52 20° NNW 21:43:19 10° NNE
Cosmos 1943 4.2 21:35:29 10° SW 21:40:59 52° WNW 21:46:29 10° NNE
ASTEX 1 4.3 21:44:32 10° SE 21:48:52 32° ENE 21:53:13 10° NNE
RESURS DK-1 2.6 21:48:47 10° SSW 21:52:53 74° WNW 21:57:02 10° NNE
Cosmos 1538 Rocket 4.0 21:48:55 10° SSW 21:54:05 86° WNW 21:59:18 10° NNE
Aureole 3 Rocket 4.2 21:48:57 10° SSE 21:55:34 45° E 22:00:21 10° NNE
NOSS 2-2 (E) 3.6 21:53:28 10° SSW 21:57:21 53° ESE 22:01:49 10° NE
Cosmos 1455 Rocket 3.1 21:53:42 10° N 21:58:06 87° WSW 22:02:26 10° S
Okean 1 3.7 21:54:52 10° SSW 21:58:48 66° W 22:02:46 10° N
Cosmos 2369 Rocket 3.7 21:55:21 10° NW 22:00:24 34° WSW 22:05:27 10° SSW
Cosmos 1975 3.0 21:56:33 10° NNW 22:00:37 75° W 22:04:40 10° S
Spot 1 4.4 21:57:32 10° S 22:02:09 71° WSW 22:06:32 10° NNW
Cosmos 923 Rocket 4.2 21:57:34 10° S 22:02:42 51° ESE 22:07:50 10° NNE
Cosmos 405 Rocket 3.0 22:00:14 10° SSE 22:03:48 46° E 22:07:27 10° NNE
Helios 1B rocket 2.8 22:01:04 10° N 22:05:11 71° WNW 22:09:18 10° SSW
Cosmos 1346 3.7 22:03:17 13° SSE 22:05:20 31° E 22:07:50 10° NNE
Cosmos 1656 Rocket 3.8 22:00:01 10° NNW 22:05:26 62° ENE 22:10:13 13° SE
Tiangong 2 2.6 22:05:50 10° SSW 22:08:04 18° SSE 22:08:38 17° SE
YAOGAN 6 2.4 22:05:25 11° SSE 22:08:47 74° ENE 22:12:18 10° N
SAR-Lupe-4 4.2 22:07:08 10° S 22:10:38 54° WSW 22:14:10 10° NNW
Meteor 1-13 Rocket 4.3 22:06:13 10° S 22:12:07 70° E 22:18:01 10° NNE
COSMOS 2455 3.1 22:06:11 10° NW 22:12:10 66° WSW 22:18:01 10° SSE
Meteor 1-29 3.4 22:09:42 10° N 22:13:04 63° WNW 22:16:23 10° SSW
Cosmos 1939 Rocket 3.4 22:10:20 10° S 22:14:07 55° W 22:17:56 10° NNW
Cosmos 1441 Rocket 3.8 22:15:22 16° SSE 22:17:51 34° E 22:21:17 10° NNE
Cosmos 1943 Rocket 3.1 22:14:04 10° NW 22:19:23 44° WSW 22:24:36 10° S
Cosmos 2327 Rocket 4.5 22:15:21 10° N 22:21:31 71° E 22:27:15 12° SSE
Cosmos 1437 3.3 22:18:33 10° SSW 22:21:43 59° W 22:24:55 10° N
Cosmos 1818 3.8 22:16:30 10° SW 22:21:56 77° WNW 22:27:25 10° NNE
OAO 2 Rocket 4.0 22:18:00 10° SW 22:22:25 33° SSE 22:25:27 18° ESE
ERS-1 Rocket 2.9 22:21:30 13° SSE 22:26:01 86° ENE 22:31:03 10° NNW
H-2A R/B 3.0 22:24:04 17° ESE 22:26:59 30° ENE 22:31:17 10° N
NOAA 11 4.2 22:22:31 15° SSE 22:27:03 69° ENE 22:32:28 10° N
COSMOS 2406 3.2 22:21:50 10° SSW 22:27:32 72° ESE 22:33:14 10° NNE
Okean 1-7 Rocket 3.9 22:25:22 17° SSE 22:28:34 45° E 22:32:52 10° NNE
USA 267 4.4 22:27:48 10° E 22:32:04 18° ESE 22:32:18 18° SE
Cosmos 2112 Rocket 4.0 22:30:24 10° S 22:35:34 66° ESE 22:40:45 10° NNE
ARGOS 3.3 22:32:23 19° SSE 22:36:10 60° ENE 22:41:31 10° N
NOSS 2-2 (D) 3.8 22:36:08 10° SW 22:40:07 68° NW 22:44:43 10° NNE
DNEPR-1 R/B 3.6 22:37:11 10° NNW 22:41:26 72° NE 22:43:52 27° SE
Cosmos 1743 3.6 22:38:10 10° NNW 22:41:55 47° W 22:45:15 13° SSW
Cosmos 2082 Rocket 3.9 22:43:04 14° E 22:43:04 14° E 22:45:49 10° ENE
Intercosmos 24 3.9 22:40:45 10° N 22:44:52 58° E 22:46:21 31° SE
CENTAUR R/B 3.3 22:41:41 10° NW 22:49:35 70° WSW 22:55:42 20° SSE
Okean 2 3.6 22:48:38 30° SSE 22:50:21 51° E 22:54:20 10° NNE
Cosmos 2184 Rocket 4.4 22:44:18 10° NNW 22:50:37 66° W 22:56:27 12° S
Cosmos 2074 Rocket 4.4 22:45:46 10° NNW 22:51:54 62° W 22:57:50 11° S
Cosmos 2228 4.4 22:49:16 10° NNE 22:52:47 24° ENE 22:53:47 22° E
SL-27 R/B 2.4 22:50:50 19° SSW 22:53:23 84° ESE 22:57:04 10° NNE
ASTRO E2 4.5 22:52:05 10° SW 22:54:11 17° SSW 22:54:11 17° SSW
USA 245 2.2 22:54:49 60° SSE 22:55:15 84° E 22:57:47 10° N
Cosmos 192 4.2 22:50:34 10° SSW 22:55:28 81° ESE 23:00:24 10° NNE
Cosmos 1437 Rocket 3.0 22:52:44 10° N 22:56:28 50° ENE 22:57:30 38° SE
Aureole 1 Rocket 2.5 22:53:34 11° SSW 22:56:54 67° WNW 22:59:56 10° NNE
YAOGAN 11 4.1 22:54:49 26° S 22:57:12 76° WSW 23:01:32 10° NNW
Cosmos 921 Rocket 4.2 22:55:25 10° N 22:59:24 30° ENE 23:00:46 25° E
Cosmos 1680 Rocket 3.9 22:54:21 10° SSW 22:59:31 66° WNW 23:04:44 10° NNE
Cosmos 1606 Rocket 3.7 22:55:59 10° N 23:00:15 56° E 23:01:41 37° SE
Cosmos 2056 Rocket 3.9 22:57:07 10° N 23:02:11 50° ENE 23:04:17 31° ESE
Cosmos 405 3.1 22:59:41 10° NNW 23:03:15 70° W 23:04:29 37° S
PSLV R/B 2.9 23:01:19 10° W 23:04:27 78° S 23:04:42 70° SE
Cosmos 1697 Rocket 4.4 23:05:05 10° N 23:09:23 22° NE 23:12:12 15° E
Cosmos 1726 Rocket 3.6 23:07:19 10° N 23:11:37 62° E 23:12:47 44° SE
Meteor 2-4 Rocket 4.4 23:08:17 10° SSW 23:13:44 54° WNW 23:19:24 10° N
Cosmos 1666 4.4 23:11:41 10° NNW 23:14:53 27° W 23:17:11 15° SW
Cosmos 2058 Rocket 3.4 23:11:13 10° N 23:15:30 50° E 23:16:28 42° ESE
SPOT 5 3.1 23:13:45 28° SSW 23:15:48 55° W 23:20:04 10° NNW
SPOT 1/Viking Rocket 3.5 23:15:21 32° S 23:17:49 81° WSW 23:23:01 10° NNW
COSMOS 2487 4.2 23:19:36 22° ENE 23:19:36 22° ENE 23:21:23 10° NE
Landsat 7 3.8 23:17:21 41° SE 23:18:56 70° ENE 23:23:41 10° N
CARTOSAT-1 4.0 23:19:44 41° ESE 23:20:37 48° ENE 23:24:48 10° N
Cosmos 962 Rocket 4.4 23:15:11 10° N 23:21:30 86° E 23:24:35 32° S
Cosmos 839 Rocket 4.5 23:15:13 10° NNW 23:21:41 65° ENE 23:25:33 30° SE
SL-08 RB Rocket 4.0 23:20:54 32° SSW 23:22:47 58° W 23:27:13 10° NNW
Cosmos 1025 Rocket 3.9 23:22:45 18° SW 23:25:42 45° WNW 23:29:49 10° N
Cosmos 1833 Rocket 3.4 23:28:30 32° ESE 23:28:39 32° ESE 23:33:35 10° NE
Cosmos 1066 Rocket 4.4 23:28:37 41° SE 23:29:54 49° E 23:35:15 10° NNE
Terra 1.8 23:32:52 50° SE 23:34:00 69° ENE 23:38:45 10° N
Cosmos 1452 Rocket 4.2 23:29:32 10° N 23:34:31 41° ENE 23:35:54 34° E
Cosmos 1656 4.3 23:29:20 10° NNW 23:34:32 43° ENE 23:36:14 34° ESE
Spot 4 4.5 23:37:31 37° E 23:38:23 40° ENE 23:42:52 10° N
SL-8 Rocket 3.9 23:34:04 10° N 23:40:20 75° E 23:42:36 42° SSE
Cosmos 1371 Rocket 4.4 23:36:05 10° NNW 23:41:17 56° WSW 23:43:05 37° SSW
Cosmos 2366 rocket 4.1 23:37:41 10° N 23:43:48 58° E 23:45:36 43° SE
Cosmos 1515 4.3 23:43:36 44° WSW 23:44:21 53° W 23:48:05 10° N
H-2A R/B 2.1 23:45:08 63° SSE 23:45:52 90° ENE 23:50:25 10° NNW
Meteor 1-4 Rocket 3.1 23:52:40 10° N 23:55:39 52° NNE 23:55:39 52° NNE
